{"data":{"norad_id":62081,"intl_designator":"2024-219A","name":"KINEIS-5C","alt_names":[],"object_type":"PAYLOAD","status":"ACTIVE","operator":null,"country":"FR","launch_date":"2024-11-25","launch_site_code":"RLLB","launch_vehicle":null,"mission":null,"orbit_class":"UNKNOWN","rcs_meters":null,"size_class":null,"mass_kg":null,"dimensions":null,"purposes":[],"wikipedia_slug":null,"has_3d_model":false,"image_url":null,"decayed_at":null,"tle_current":{"epoch":"2026-09-22T22:10:48.112608Z","epoch_age_seconds":98051,"freshness":"FRESH","line1":"1 62081U 24219A   26265.92416797  .00000406  00000+0  71853-4 0  9998","line2":"2 62081  97.9156  62.1314 0003527 348.7188  11.3940 14.72322686 98139","mean_motion":14.72322686,"eccentricity":0.0003527,"inclination_deg":97.9156,"raan_deg":62.1314,"arg_perigee_deg":348.7188,"mean_anomaly_deg":11.394,"bstar":7.1853e-5,"rev_number":9813,"period_min":97.804646609921,"perigee_km":651.18281065444,"apogee_km":656.14304232259,"semimajor_km":7031.7999264885,"source":"CELESTRAK","updated_at":"2026-09-23T09:00:21.210217Z"}}}